CAPE
893 822 722 670 641 622 617 660 679 634 658 707 724 774 950 1139 1127 1000 692 952 970 917 704 590 563 531 427 395 533 471 445 537 640 678 636 612 531 443 430 508 486 143
988 940 833 707 656 627 623 665 672 630 599 616 707 754 979 1089 971 870 817 987 1051 990 832 666 576 573 448 493 485 494 482 760 765 759 685 617 638 688 528 509 514 210
752 1054 952 730 601 618 655 679 693 687 623 672 812 912 1048 1025 943 941 1123 1092 952 802 807 807 753 605 487 480 450 542 541 817 858 803 815 738 721 763 753 650 517 344
786 676 901 789 610 600 624 602 710 710 730 800 955 1057 1093 1141 965 1115 1147 994 868 1012 964 910 850 688 575 525 509 696 625 826 952 928 868 733 675 676 685 671 594 471
676 694 757 919 774 673 593 648 746 746 759 925 981 1060 1010 1067 985 1078 1064 914 907 986 1015 920 844 751 641 582 555 707 726 836 955 919 804 699 610 564 672 771 664 468
835 560 733 737 834 714 748 740 777 743 822 954 1089 1028 901 904 800 826 939 974 916 914 954 901 866 829 707 614 507 670 701 696 745 719 723 634 562 542 714 829 728 684
786 573 716 671 705 817 852 877 843 967 1010 1044 997 841 855 862 763 827 872 939 892 898 889 869 783 718 656 649 584 574 558 482 542 672 736 583 396 549 672 748 715 714
719 534 644 560 730 636 823 917 1046 1172 1166 980 650 618 601 623 480 556 752 774 816 849 808 745 663 613 588 564 552 455 496 566 585 616 690 711 504 483 595 710 795 744
601 422 406 498 547 613 796 950 1149 1032 908 660 608 581 499 492 416 596 639 680 798 814 738 669 600 540 562 512 467 496 535 616 638 626 638 609 541 354 447 556 657 798
590 440 420 414 334 535 877 996 988 741 693 642 609 359 0 0 458 526 468 508 584 615 662 611 542 532 533 481 463 518 565 576 607 581 583 579 490 420 458 514 599 631
562 463 456 428 299 550 656 846 746 709 689 462 339 320 0 0 0 149 462 520 539 521 510 524 537 550 516 453 506 542 624 588 582 549 598 600 511 486 586 594 658 750
654 551 468 420 302 386 440 626 773 764 571 314 306 344 262 0 0 0 0 366 477 531 514 473 464 492 495 514 571 583 622 582 530 520 594 620 616 622 691 680 1016 1050
628 445 320 404 418 355 398 505 715 626 395 274 181 0 0 0 0 0 0 0 0 316 479 264 0 0 226 504 507 532 573 544 512 486 525 514 544 643 793 852 1034 1114
525 363 273 300 362 192 143 414 466 398 308 184 150 15 0 0 0 0 0 0 0 0 0 0 0 0 0 252 367 426 514 588 573 502 474 408 392 646 738 844 982 1038
446 378 310 315 364 240 23 365 176 264 205 226 178 13 0 0 0 0 0 0 0 0 0 0 0 0 0 0 0 50 56 55 86 545 491 124 65 580 730 921 880 921
444 477 432 323 159 60 269 6 219 187 177 187 121 0 0 0 0 0 0 0 0 0 0 0 0 0 0 0 0 0 0 0 0 0 0 0 0 0 552 600 602 712
313 521 368 313 292 208 248 216 241 139 158 136 39 0 0 0 0 0 0 0 0 0 0 0 0 0 0 0 0 0 0 0 0 0 0 0 48 436 499 511 505 464
218 272 404 377 336 262 10 199 177 118 156 70 0 0 0 0 0 0 0 0 0 0 0 0 0 0 0 0 0 0 0 0 0 0 0 0 0 140 125 136 0 0
57 221 113 249 353 284 212 218 152 39 72 19 0 0 0 0 0 0 0 0 0 0 0 0 0 0 0 0 0 0 0 0 0 0 0 0 0 0 0 0 0 0
111 36 161 229 158 178 20 105 185 70 7 0 0 0 0 0 0 0 0 0 0 0 0 0 0 0 0 0 0 4 8 0 0 2 0 0 0 0 0 0 0 0
224 3 54 130 207 239 124 91 108 43 3 0 0 0 0 0 0 0 0 0 0 0 0 0 0 0 0 0 1 0 0 0 0 5 1 0 0 0 0 0 0 0
168 131 3 179 46 21 57 22 15 10 0 0 6 0 0 0 3 0 0 0 0 0 0 0 0 0 0 0 0 1 0 0 0 0 0 0 0 0 0 0 0 0
53 127 106 6 10 63 43 28 20 62 13 3 13 2 0 1 3 2 0 0 0 0 0 0 0 0 0 0 0 0 0 0 0 0 0 0 0 0 0 0 0 0
0 17 36 22 6 31 38 136 69 30 1 6 22 6 0 1 3 2 1 0 0 0 0 0 0 0 0 0 10 19 24 0 0 0 0 0 0 0 0 0 0 0
20 23 6 7 20 12 151 93 50 13 0 6 6 2 0 0 2 4 2 0 0 0 0 0 0 0 0 0 0 57 62 58 42 26 23 26 22 18 14 14 32 41
60 30 1 3 2 16 26 16 15 13 2 2 3 5 0 0 2 2 3 1 0 0 0 0 0 3 2 4 2 41 77 88 82 83 90 100 106 100 89 88 86 86
Wind_Speed
15 11 10 11 11 11 9 7 6 7 7 10 10 9 9 11 20 20 16 13 13 14 14 13 14 15 16 18 18 17 15 13 13 14 13 13 14 14 14 14 15 15
19 12 9 9 11 11 8 6 6 7 7 8 9 9 11 12 19 17 17 15 15 14 15 14 14 15 16 17 18 17 15 13 14 15 15 14 13 13 12 13 13 14
23 15 9 7 9 10 9 7 7 8 8 8 10 11 11 13 17 17 18 18 16 15 15 14 14 16 17 18 19 18 16 16 16 16 15 13 12 11 11 13 13 13
19 13 10 6 7 10 11 9 8 8 10 11 11 12 14 14 16 17 17 18 17 15 15 16 15 18 19 19 19 19 18 17 17 16 15 14 11 12 12 12 13 12
18 15 12 7 7 10 12 10 8 8 9 10 13 14 15 14 15 17 18 17 16 16 16 16 17 19 20 19 19 19 18 17 17 15 14 12 12 12 12 12 12 12
17 13 14 12 10 10 11 10 9 9 9 11 13 14 14 15 15 16 17 17 15 16 16 16 16 19 20 19 18 18 18 16 15 15 13 12 12 12 12 12 12 13
24 24 20 23 19 11 11 11 10 9 9 10 13 13 15 16 16 15 15 15 16 16 17 16 17 19 19 19 18 18 18 16 15 14 13 13 12 11 13 13 12 12
24 19 17 18 20 12 10 10 11 10 10 12 13 12 14 16 16 15 15 15 17 18 18 17 17 19 19 19 18 17 17 16 14 13 14 14 13 12 14 14 13 12
24 19 18 17 15 11 8 9 9 11 12 13 13 12 12 14 15 15 15 16 18 19 18 17 16 17 18 18 18 17 15 14 13 13 14 14 13 13 14 15 14 13
25 23 20 20 17 11 8 10 10 12 14 14 14 13 nan nan 14 15 15 16 19 19 18 16 16 17 17 16 16 17 15 13 13 13 14 14 13 13 13 13 13 14
21 21 22 24 23 19 11 13 14 15 15 16 16 14 nan nan nan 16 16 17 18 18 18 18 16 17 17 16 16 16 15 14 13 13 13 13 13 12 12 13 14 13
17 19 20 20 24 22 18 16 17 15 16 18 18 16 17 nan nan nan nan 17 19 19 20 20 19 16 16 17 17 17 16 14 13 11 11 12 13 13 13 13 13 12
16 16 18 20 24 26 24 19 16 17 17 19 19 nan nan nan nan nan nan nan nan 24 23 22 nan nan 19 18 17 18 17 15 14 12 11 11 12 12 12 13 13 13
20 21 19 19 23 29 28 18 12 17 17 20 22 nan nan nan nan nan nan nan nan nan nan nan nan nan nan 21 20 19 18 17 15 14 13 12 13 14 16 15 14 14
19 21 22 21 23 27 nan 23 16 18 19 22 26 nan nan nan nan nan nan nan nan nan nan nan nan nan nan nan nan nan nan nan nan 17 16 17 nan 17 17 16 16 18
19 19 19 21 20 nan 25 nan 24 25 24 26 29 nan nan nan nan nan nan nan nan nan nan nan nan nan nan nan nan nan nan nan nan nan nan nan nan nan 19 20 21 22
18 17 21 20 19 19 21 27 26 27 29 28 nan nan nan nan nan nan nan nan nan nan nan nan nan nan nan nan nan nan nan nan nan nan nan nan nan 23 22 22 23 24
19 23 25 21 21 19 nan 24 27 29 31 nan nan nan nan nan nan nan nan nan nan nan nan nan nan nan nan nan nan nan nan nan nan nan nan nan nan 26 25 24 nan nan
nan 26 25 24 22 20 22 28 29 nan nan nan nan nan nan nan nan nan nan nan nan nan nan nan nan nan nan nan nan nan nan nan nan nan nan nan nan nan nan nan nan nan
23 nan 26 25 25 27 nan 28 28 nan nan nan nan nan nan nan nan nan nan nan nan nan nan nan nan nan nan nan nan nan nan nan nan nan nan nan nan nan nan nan nan nan
25 nan nan 24 28 29 27 nan 30 nan nan nan nan nan nan nan nan nan nan nan nan nan nan nan nan nan nan nan nan nan nan nan nan nan nan nan nan nan nan nan nan nan
28 27 nan 30 nan nan nan nan nan nan nan nan nan nan nan nan nan nan nan nan nan nan nan nan nan nan nan nan nan nan nan nan nan nan nan nan nan nan nan nan nan nan
nan 29 31 nan nan nan nan nan nan nan nan nan nan nan nan nan nan nan nan nan nan nan nan nan nan nan nan nan nan nan nan nan nan nan nan nan nan nan nan nan nan nan
nan nan nan nan nan nan nan 34 nan nan nan nan nan nan nan nan nan nan nan nan nan nan nan nan nan nan nan nan nan nan nan nan nan nan nan nan nan nan nan nan nan nan
nan nan nan nan nan nan 33 nan nan nan nan nan nan nan nan nan nan nan nan nan nan nan nan nan nan nan nan nan nan nan nan nan nan nan nan nan nan nan nan nan nan nan
nan nan nan nan nan nan nan nan nan nan nan nan nan nan nan nan nan nan nan nan nan nan nan nan nan nan nan nan nan nan nan nan nan nan nan 43 41 40 nan nan nan nan
Wind_Direction
234 250 271 279 276 269 271 278 273 274 256 242 242 234 239 239 247 255 256 258 263 266 264 265 260 257 259 258 255 254 254 251 256 258 256 257 256 259 260 257 251 254
210 230 240 261 265 257 256 270 280 268 253 239 233 233 231 241 255 272 278 276 270 267 267 263 258 259 259 261 261 261 256 256 258 251 258 258 257 260 259 258 255 246
196 198 223 254 273 264 258 248 256 256 250 241 235 237 242 242 260 269 278 277 272 272 270 262 258 258 257 259 261 263 263 263 262 254 260 261 256 260 255 252 249 251
208 184 188 223 251 258 250 244 240 244 240 246 249 252 252 248 254 264 268 275 276 275 271 266 264 258 254 255 258 262 264 263 258 257 255 248 245 249 247 242 241 237
229 196 181 202 228 242 245 242 240 240 245 254 256 258 260 258 258 261 267 274 277 276 272 270 262 258 254 253 254 259 260 258 250 247 244 243 236 238 235 236 235 232
238 232 199 198 219 234 242 241 237 240 250 259 270 266 265 265 264 264 270 277 277 279 275 268 264 258 256 253 251 250 254 248 240 237 234 236 232 224 227 227 229 226
224 232 221 197 189 213 234 241 242 244 254 261 261 268 272 273 274 277 280 282 279 280 278 272 266 262 259 257 252 248 246 241 233 229 231 227 222 219 218 222 223 221
222 234 240 216 184 185 227 241 250 253 253 253 259 263 270 274 278 281 284 286 285 284 281 276 270 265 264 262 260 252 245 239 234 230 226 223 216 216 215 217 219 223
214 214 233 232 208 176 222 249 250 253 254 258 258 258 259 267 271 277 282 283 284 285 284 282 277 270 266 265 263 258 252 243 240 236 232 230 223 217 218 218 223 227
216 206 211 229 217 198 240 252 239 246 249 253 255 253 nan nan 258 262 265 273 278 279 280 280 276 270 266 263 263 262 255 251 248 242 234 229 228 225 225 226 230 235
235 219 210 215 215 197 213 246 232 237 241 248 248 247 nan nan nan 250 259 266 273 273 270 269 271 271 271 264 259 259 259 255 249 241 233 226 225 228 230 233 235 238
249 237 233 235 228 208 192 227 243 240 248 250 250 250 242 nan nan nan nan 264 265 264 262 260 260 268 272 271 268 264 263 260 252 239 227 225 226 227 231 235 237 238
247 247 257 256 243 227 206 204 240 250 256 261 255 nan nan nan nan nan nan nan nan 256 256 256 nan nan 251 255 259 262 265 261 249 234 225 227 233 239 238 238 236 237
224 234 249 256 252 244 227 211 247 265 259 254 253 nan nan nan nan nan nan nan nan nan nan nan nan nan nan 240 246 254 256 254 249 242 238 240 244 245 247 248 243 239
238 235 245 259 269 263 nan 233 253 279 272 264 255 nan nan nan nan nan nan nan nan nan nan nan nan nan nan nan nan nan nan nan nan 256 259 260 nan 257 254 255 251 245
253 254 257 263 271 nan 271 nan 253 271 277 269 263 nan nan nan nan nan nan nan nan nan nan nan nan nan nan nan nan nan nan nan nan nan nan nan nan nan 262 254 246 244
271 271 267 268 276 278 269 265 263 270 266 265 nan nan nan nan nan nan nan nan nan nan nan nan nan nan nan nan nan nan nan nan nan nan nan nan nan 272 268 258 251 247
269 267 272 272 276 282 nan 256 264 272 272 nan nan nan nan nan nan nan nan nan nan nan nan nan nan nan nan nan nan nan nan nan nan nan nan nan nan 265 264 262 nan nan
nan 278 284 289 282 272 271 266 264 nan nan nan nan nan nan nan nan nan nan nan nan nan nan nan nan nan nan nan nan nan nan nan nan nan nan nan nan nan nan nan nan nan
238 nan 281 287 279 270 nan 276 271 nan nan nan nan nan nan nan nan nan nan nan nan nan nan nan nan nan nan nan nan nan nan nan nan nan nan nan nan nan nan nan nan nan
241 nan nan 255 269 267 268 nan 275 nan nan nan nan nan nan nan nan nan nan nan nan nan nan nan nan nan nan nan nan nan nan nan nan nan nan nan nan nan nan nan nan nan
238 244 nan 247 nan nan nan nan nan nan nan nan nan nan nan nan nan nan nan nan nan nan nan nan nan nan nan nan nan nan nan nan nan nan nan nan nan nan nan nan nan nan
nan 241 246 nan nan nan nan nan nan nan nan nan nan nan nan nan nan nan nan nan nan nan nan nan nan nan nan nan nan nan nan nan nan nan nan nan nan nan nan nan nan nan
nan nan nan nan nan nan nan 254 nan nan nan nan nan nan nan nan nan nan nan nan nan nan nan nan nan nan nan nan nan nan nan nan nan nan nan nan nan nan nan nan nan nan
nan nan nan nan nan nan 235 nan nan nan nan nan nan nan nan nan nan nan nan nan nan nan nan nan nan nan nan nan nan nan nan nan nan nan nan nan nan nan nan nan nan nan
nan nan nan nan nan nan nan nan nan nan nan nan nan nan nan nan nan nan nan nan nan nan nan nan nan nan nan nan nan nan nan nan nan nan nan 269 266 265 nan nan nan nan